This demonstration page uses our WeatherBlox Daily Observations layout. Learn more.

Left ArrowRight Arrow

Hourly Observations for September 4, 2019

Temp ( °F °C ) Dew Point ( °F °C ) Humidity (%) Winds ( mph kmh ) Pressure ( in mb ) Visibility ( mi km ) Precip ( " mm )
12:53 am 00:53 Clear 64 17.8 57 13.9 78 78 Calm 30.12 1020 10 16 0.00 0.00
1:53 am 01:53 Clear 61 16.1 56 13.3 84 84 Calm 30.14 1021 10 16 0.00 0.00
2:53 am 02:53 Clear 60 15.6 56 13.3 86 86 Calm 30.14 1021 10 16 0.00 0.00
3:53 am 03:53 Clear 60 15.6 55 12.8 84 84 Calm 30.14 1021 10 16 0.00 0.00
4:53 am 04:53 Clear 59 15 55 12.8 87 87 Calm 30.15 1021 10 16 0.00 0.00
5:53 am 05:53 Clear 58 14.4 54 12.2 87 87 Calm 30.16 1021 10 16 0.00 0.00
6:53 am 06:53 Clear 57 13.9 54 12.2 90 90 E 5 7 30.18 1022 10 16 0.00 0.00
7:53 am 07:53 Sunny 62 16.7 52 11.1 70 70 ESE 7 11 30.19 1022 9 14 0.00 0.00
8:53 am 08:53 Sunny 66 18.9 53 11.7 63 63 ESE 8 13 30.19 1022 10 16 0.00 0.00
9:53 am 09:53 Sunny 67 19.4 54 12.2 63 63 SE 9 15 30.19 1022 10 16 0.00 0.00
10:53 am 10:53 Sunny 71 21.7 55 12.8 57 57 SE 12 19 30.18 1022 10 16 0.00 0.00
11:53 am 11:53 Sunny 73 22.8 55 12.8 53 53 SE 9 15 30.18 1022 10 16 0.00 0.00
12:53 pm 12:53 Sunny 76 24.4 55 12.8 48 48 ESE 12 19 30.17 1022 10 16 0.00 0.00
1:53 pm 13:53 Sunny 77 25 55 12.8 47 47 SE 12 19 30.15 1021 10 16 0.00 0.00
2:53 pm 14:53 Sunny 78 25.6 56 13.3 47 47 ESE 10 17 30.14 1021 10 16 0.00 0.00
3:53 pm 15:53 Sunny 79 26.1 56 13.3 45 45 SSE 10 17 30.11 1020 10 16 0.00 0.00
4:53 pm 16:53 Sunny 79 26.1 56 13.3 45 45 SSE 13 20 30.10 1019 10 16 0.00 0.00
5:53 pm 17:53 Sunny 78 25.6 57 13.9 48 48 SE 13 20 30.09 1019 10 16 0.00 0.00
6:53 pm 18:53 Sunny 76 24.4 58 14.4 54 54 SE 13 20 30.08 1019 10 16 0.00 0.00
7:53 pm 19:53 Sunny 74 23.3 59 15 60 60 SE 8 13 30.06 1018 10 16 0.00 0.00
8:53 pm 20:53 Clear 71 21.7 60 15.6 68 68 SE 7 11 30.06 1018 10 16 0.00 0.00
9:53 pm 21:53 Clear 70 21.1 60 15.6 71 71 SE 7 11 30.06 1018 10 16 0.00 0.00
10:53 pm 22:53 Clear 68 20 60 15.6 76 76 SE 7 11 30.06 1018 10 16 0.00 0.00
11:53 pm 23:53 Clear 68 20 60 15.6 76 76 SSE 7 11 30.04 1017 10 16 0.00 0.00

Powered by AerisWeather